Tracking 28790 objects as of 19-Apr-2024
HD Live streaming from Space Station
objects crossing your sky now

TITAN 34B R/B

Track TITAN 34B R/B now!
10-day predictions


NORAD ID: 12446
Int'l Code: 1981-038B
Perigee: 238.3 km
Apogee: 17,995.7 km
Inclination: 63.1 °
Period: 319.7 minutes
Semi major axis: 15488 km
RCS: Unknown
Launch date: April 24, 1981
Source: United States (US)
Launch site: AIR FORCE WESTERN TEST RANGE (AFWTR)

Note: This is a ROCKET BODY
Your satellite tracking list
Your tracking list is empty




NASA's NSSDC Master Catalog

Two Line Element Set (TLE):
1 12446U 81038B   24108.57843812  .00038388  00000-0  23505-2 0  9997
2 12446  63.0522 277.2747 5732608 282.0466  22.1807  4.50411491 58149
Source of the keplerian elements: AFSPC